IBE03TH KMIA-LEMD

Flight info

Callsign IBE03TH
Flight time N/A
Altitude 37000
Route FOLZZ3 SUMRS/M084F370 M327 KANUX DCT ENAPI DCT QINCY DCT 38N060W/M084F390 42N050W 44N040W 44N030W 43N020W/M084F410 DCT ARMED/N0478F410 DCT EPOPO DCT ADORO/N0481F400 L155 ZMR
Aircraft A359/H-SDE2E3GHIJ3J4J5LM1ORWXY/LB1D1

Departure

Time 2026-05-07 10:42
Airport Miami International Airport (KMIA)

Arrival

Time N/A
Airport Adolfo Suárez Madrid–Barajas Airport (LEMD)
Time Latitude Longitude Altitude Speed Heading
2026-05-07 10:28 25.79902 -80.27407 21 ft 0 kts 132°
2026-05-07 10:33 25.79904 -80.27410 21 ft 3 kts 132°
2026-05-07 10:33 25.79920 -80.27431 26 ft 4 kts 132°
2026-05-07 10:33 25.79938 -80.27451 26 ft 4 kts 143°
2026-05-07 10:33 25.79960 -80.27465 24 ft 4 kts 166°
2026-05-07 10:34 25.79982 -80.27465 25 ft 4 kts 219°
2026-05-07 10:34 25.79989 -80.27454 25 ft 0 kts 267°
2026-05-07 10:36 25.79989 -80.27455 25 ft 0 kts 267°
2026-05-07 10:36 25.79986 -80.27496 25 ft 11 kts 265°
2026-05-07 10:36 25.80009 -80.27609 25 ft 20 kts 301°
2026-05-07 10:36 25.80057 -80.27777 21 ft 27 kts 268°
2026-05-07 10:37 25.80049 -80.27977 24 ft 23 kts 266°
2026-05-07 10:37 25.80039 -80.28153 24 ft 23 kts 268°
2026-05-07 10:37 25.80034 -80.28326 21 ft 22 kts 268°
2026-05-07 10:37 25.80028 -80.28472 21 ft 19 kts 267°
2026-05-07 10:38 25.80023 -80.28620 26 ft 19 kts 267°
2026-05-07 10:38 25.80016 -80.28768 24 ft 19 kts 267°
2026-05-07 10:38 25.80009 -80.28920 26 ft 20 kts 267°
2026-05-07 10:38 25.80003 -80.29078 25 ft 21 kts 267°
2026-05-07 10:39 25.79997 -80.29238 22 ft 21 kts 267°
2026-05-07 10:39 25.79989 -80.29405 24 ft 22 kts 267°
2026-05-07 10:39 25.79983 -80.29578 20 ft 23 kts 268°
2026-05-07 10:39 25.79976 -80.29755 24 ft 23 kts 266°
2026-05-07 10:40 25.79967 -80.29937 20 ft 24 kts 268°
2026-05-07 10:40 25.79977 -80.30090 22 ft 16 kts 299°
2026-05-07 10:40 25.80064 -80.30106 22 ft 13 kts 49°
2026-05-07 10:40 25.80076 -80.30033 22 ft 0 kts 87°
2026-05-07 10:41 25.80076 -80.30031 22 ft 4 kts 87°
2026-05-07 10:41 25.80085 -80.29809 20 ft 61 kts 86°
2026-05-07 10:41 25.80117 -80.29108 24 ft 119 kts 88°
2026-05-07 10:41 25.80161 -80.27993 25 ft 169 kts 87°
2026-05-07 10:42 25.80233 -80.26652 483 ft 175 kts 86°
2026-05-07 10:42 25.80130 -80.25353 1209 ft 165 kts 108°
2026-05-07 10:42 25.79696 -80.24134 1571 ft 177 kts 117°
2026-05-07 10:42 25.79089 -80.22856 1769 ft 198 kts 119°
2026-05-07 10:43 25.78407 -80.21436 2020 ft 216 kts 119°
2026-05-07 10:43 25.77680 -80.19890 2270 ft 237 kts 118°
2026-05-07 10:43 25.76899 -80.18196 2609 ft 253 kts 118°
2026-05-07 10:43 25.76068 -80.16447 3169 ft 259 kts 119°
2026-05-07 10:44 25.75189 -80.14693 3782 ft 262 kts 118°
2026-05-07 10:44 25.74443 -80.12864 4339 ft 265 kts 103°
2026-05-07 10:44 25.74344 -80.10843 4925 ft 266 kts 78°
2026-05-07 10:44 25.75086 -80.08983 5494 ft 267 kts 53°
2026-05-07 10:45 25.76276 -80.07387 6108 ft 269 kts 49°
2026-05-07 10:45 25.77547 -80.05815 6599 ft 276 kts 49°
2026-05-07 10:45 25.78829 -80.04223 7185 ft 277 kts 49°
2026-05-07 10:45 25.80110 -80.02618 7781 ft 279 kts 49°
2026-05-07 10:46 25.81395 -80.00998 8400 ft 281 kts 50°
2026-05-07 10:46 25.82674 -79.99380 9000 ft 283 kts 50°
2026-05-07 10:46 25.83975 -79.97731 9620 ft 285 kts 50°
2026-05-07 10:46 25.85283 -79.96070 10207 ft 288 kts 50°
2026-05-07 10:47 25.86631 -79.94357 10472 ft 302 kts 50°
2026-05-07 10:47 25.88048 -79.92555 10704 ft 317 kts 50°
2026-05-07 10:47 25.89536 -79.90663 10914 ft 332 kts 49°
2026-05-07 10:47 25.91086 -79.88690 11116 ft 345 kts 49°
2026-05-07 10:48 25.92691 -79.86647 11302 ft 358 kts 49°
2026-05-07 10:48 25.94346 -79.84540 11601 ft 365 kts 49°
2026-05-07 10:48 25.96028 -79.82398 12043 ft 369 kts 49°
2026-05-07 10:48 25.97718 -79.80244 12499 ft 372 kts 49°
2026-05-07 10:49 25.99423 -79.78068 12963 ft 374 kts 49°
2026-05-07 10:49 26.01137 -79.75882 13442 ft 376 kts 49°
2026-05-07 10:49 26.02863 -79.73678 13892 ft 379 kts 48°
2026-05-07 10:49 26.04604 -79.71455 14278 ft 382 kts 48°
2026-05-07 10:50 26.06337 -79.69240 14640 ft 386 kts 48°
2026-05-07 10:50 26.08107 -79.66978 15026 ft 389 kts 48°
2026-05-07 10:50 26.09888 -79.64692 15407 ft 392 kts 48°
2026-05-07 10:50 26.11569 -79.62270 15785 ft 396 kts 52°
2026-05-07 10:51 26.13171 -79.59767 16155 ft 399 kts 53°
2026-05-07 10:51 26.14775 -79.57235 16522 ft 402 kts 53°
2026-05-07 10:51 26.16373 -79.54712 16874 ft 405 kts 53°
2026-05-07 10:51 26.18006 -79.52134 17236 ft 408 kts 52°
2026-05-07 10:52 26.19652 -79.49539 17553 ft 413 kts 52°
2026-05-07 10:52 26.21316 -79.46913 17908 ft 416 kts 52°
2026-05-07 10:52 26.22991 -79.44269 18279 ft 419 kts 52°
2026-05-07 10:52 26.24678 -79.41605 18599 ft 422 kts 52°
2026-05-07 10:53 26.26377 -79.38920 18926 ft 424 kts 52°
2026-05-07 10:53 26.28158 -79.36302 19233 ft 424 kts 46°
2026-05-07 10:53 26.30285 -79.34043 19544 ft 422 kts 34°
2026-05-07 10:53 26.32704 -79.32177 19864 ft 423 kts 29°
2026-05-07 10:54 26.35188 -79.30413 20184 ft 425 kts 29°
2026-05-07 10:54 26.37662 -79.28667 20512 ft 427 kts 29°
2026-05-07 10:54 26.40180 -79.26884 20851 ft 430 kts 29°
2026-05-07 10:54 26.42710 -79.25087 21194 ft 432 kts 28°
2026-05-07 10:55 26.45252 -79.23278 21535 ft 435 kts 28°
2026-05-07 10:55 26.47811 -79.21454 21867 ft 438 kts 28°
2026-05-07 10:55 26.49524 -79.20232 22071 ft 440 kts 28°
2026-05-07 10:55 26.52107 -79.18388 22422 ft 442 kts 28°
2026-05-07 10:56 26.54710 -79.16529 22771 ft 445 kts 28°
2026-05-07 10:56 26.57325 -79.14665 23110 ft 447 kts 28°
2026-05-07 10:56 26.59950 -79.12792 23431 ft 450 kts 28°
2026-05-07 10:56 26.62595 -79.10901 23752 ft 452 kts 28°
2026-05-07 10:57 26.65255 -79.08998 24050 ft 454 kts 27°
2026-05-07 10:57 26.67923 -79.07087 24357 ft 456 kts 27°
2026-05-07 10:57 26.70602 -79.05167 24688 ft 458 kts 27°
2026-05-07 10:57 26.73282 -79.03243 25079 ft 458 kts 27°
2026-05-07 10:58 26.75976 -79.01310 25419 ft 461 kts 27°
2026-05-07 10:58 26.78689 -78.99363 25727 ft 464 kts 27°
2026-05-07 10:58 26.81416 -78.97404 26073 ft 467 kts 27°
2026-05-07 10:58 26.84158 -78.95432 26427 ft 469 kts 27°
2026-05-07 10:59 26.86874 -78.93479 26779 ft 471 kts 27°
2026-05-07 10:59 26.89675 -78.91463 27112 ft 474 kts 27°
2026-05-07 10:59 26.92457 -78.89459 27454 ft 476 kts 27°
2026-05-07 10:59 26.95212 -78.87474 27801 ft 479 kts 27°
2026-05-07 11:00 26.98021 -78.85449 28118 ft 481 kts 27°
2026-05-07 11:00 27.00847 -78.83410 28452 ft 483 kts 27°
2026-05-07 11:00 27.03684 -78.81361 28780 ft 486 kts 26°
2026-05-07 11:00 27.06546 -78.79296 28994 ft 491 kts 26°
2026-05-07 11:01 27.09424 -78.77218 29295 ft 493 kts 26°
2026-05-07 11:01 27.12315 -78.75130 29614 ft 495 kts 26°
2026-05-07 11:01 27.15226 -78.73024 29908 ft 498 kts 26°
2026-05-07 11:01 27.18139 -78.70913 30182 ft 500 kts 26°
2026-05-07 11:02 27.21069 -78.68790 30419 ft 502 kts 26°
2026-05-07 11:02 27.24011 -78.66656 30705 ft 502 kts 27°
2026-05-07 11:02 27.26909 -78.64442 30972 ft 507 kts 31°
2026-05-07 11:02 27.29562 -78.61775 31172 ft 517 kts 41°
2026-05-07 11:03 27.31874 -78.58705 31398 ft 522 kts 46°
2026-05-07 11:03 27.34134 -78.55488 31624 ft 524 kts 46°
2026-05-07 11:03 27.36383 -78.52265 31936 ft 523 kts 46°
2026-05-07 11:03 27.38629 -78.49050 32272 ft 522 kts 46°
2026-05-07 11:04 27.40873 -78.45843 32589 ft 521 kts 46°
2026-05-07 11:04 27.43122 -78.42629 32899 ft 519 kts 46°
2026-05-07 11:04 27.45358 -78.39435 33208 ft 519 kts 46°
2026-05-07 11:04 27.47594 -78.36238 33510 ft 518 kts 46°
2026-05-07 11:05 27.49791 -78.33097 33795 ft 517 kts 46°
2026-05-07 11:05 27.52017 -78.29913 34078 ft 516 kts 46°
2026-05-07 11:05 27.54234 -78.26738 34312 ft 515 kts 46°
2026-05-07 11:05 27.56451 -78.23561 34556 ft 515 kts 46°
2026-05-07 11:06 27.58669 -78.20382 34668 ft 517 kts 46°
2026-05-07 11:06 27.60900 -78.17182 34840 ft 518 kts 46°
2026-05-07 11:06 27.63124 -78.13988 35081 ft 517 kts 46°
2026-05-07 11:06 27.65339 -78.10805 35322 ft 516 kts 46°
2026-05-07 11:07 27.67550 -78.07624 35545 ft 515 kts 46°
2026-05-07 11:07 27.69759 -78.04445 35759 ft 514 kts 46°
2026-05-07 11:07 27.71962 -78.01272 35958 ft 513 kts 46°
2026-05-07 11:07 27.74168 -77.98093 36154 ft 513 kts 46°
2026-05-07 11:08 27.76366 -77.94922 36348 ft 512 kts 46°
2026-05-07 11:08 27.78529 -77.91800 36570 ft 510 kts 46°
2026-05-07 11:08 27.80713 -77.88644 36771 ft 510 kts 46°
2026-05-07 11:08 27.82895 -77.85491 36922 ft 509 kts 46°
2026-05-07 11:09 27.85082 -77.82327 37050 ft 511 kts 45°
2026-05-07 11:09 27.87273 -77.79158 37061 ft 514 kts 45°
2026-05-07 11:09 27.91696 -77.72751 37060 ft 517 kts 46°
2026-05-07 11:10 27.96109 -77.66344 37064 ft 516 kts 46°
2026-05-07 11:10 28.00524 -77.59926 37064 ft 516 kts 46°
2026-05-07 11:11 28.04930 -77.53511 37064 ft 515 kts 46°
2026-05-07 11:11 28.09325 -77.47103 37082 ft 515 kts 46°
2026-05-07 11:12 28.13732 -77.40672 37061 ft 517 kts 46°
2026-05-07 11:12 28.18121 -77.34253 37061 ft 518 kts 46°
2026-05-07 11:13 28.22529 -77.27797 37064 ft 518 kts 46°
2026-05-07 11:13 28.26942 -77.21324 37062 ft 518 kts 46°
2026-05-07 11:14 28.31350 -77.14849 37064 ft 518 kts 46°
2026-05-07 11:14 28.35749 -77.08377 37071 ft 518 kts 46°
2026-05-07 11:15 28.40168 -77.01868 37066 ft 521 kts 46°
2026-05-07 11:15 28.44559 -76.95388 37066 ft 521 kts 46°
2026-05-07 11:16 28.48980 -76.88853 37060 ft 521 kts 46°
2026-05-07 11:16 28.53398 -76.82313 37064 ft 521 kts 46°
2026-05-07 11:17 28.57809 -76.75774 37060 ft 521 kts 46°
2026-05-07 11:17 28.62223 -76.69221 37063 ft 522 kts 46°
2026-05-07 11:18 28.66646 -76.62645 37064 ft 523 kts 46°
2026-05-07 11:18 28.70988 -76.56043 37062 ft 527 kts 51°
2026-05-07 11:19 28.74745 -76.48810 37063 ft 531 kts 55°
2026-05-07 11:19 28.78295 -76.41427 37064 ft 530 kts 56°
2026-05-07 11:20 28.81819 -76.34048 37063 ft 530 kts 56°
2026-05-07 11:20 28.85373 -76.26663 37071 ft 530 kts 56°
2026-05-07 11:21 28.88933 -76.19288 37069 ft 531 kts 56°
2026-05-07 11:21 28.92467 -76.11958 37068 ft 530 kts 55°
2026-05-07 11:22 28.96019 -76.04573 37069 ft 529 kts 55°
2026-05-07 11:22 28.99552 -75.97215 37067 ft 528 kts 55°
2026-05-07 11:23 29.03082 -75.89851 37070 ft 528 kts 55°
2026-05-07 11:23 29.06590 -75.82518 37070 ft 528 kts 56°
2026-05-07 11:24 29.10115 -75.75139 37078 ft 529 kts 56°
2026-05-07 11:24 29.13636 -75.67749 37062 ft 528 kts 56°
2026-05-07 11:25 29.17147 -75.60369 37078 ft 528 kts 56°
2026-05-07 11:25 29.20633 -75.53030 37080 ft 528 kts 56°
2026-05-07 11:26 29.24144 -75.45624 37064 ft 528 kts 56°
2026-05-07 11:26 29.27646 -75.38222 37075 ft 527 kts 56°
2026-05-07 11:27 29.31106 -75.30893 37075 ft 526 kts 56°
2026-05-07 11:27 29.34591 -75.23502 37079 ft 527 kts 56°
2026-05-07 11:28 29.38081 -75.16087 37075 ft 527 kts 56°
2026-05-07 11:28 29.41562 -75.08676 37075 ft 527 kts 56°
2026-05-07 11:29 29.45013 -75.01315 37068 ft 526 kts 56°
2026-05-07 11:29 29.48478 -74.93909 37086 ft 526 kts 56°
2026-05-07 11:30 29.51933 -74.86511 37084 ft 526 kts 56°
2026-05-07 11:30 29.55393 -74.79090 37082 ft 527 kts 56°
2026-05-07 11:31 29.58852 -74.71657 37078 ft 528 kts 56°
2026-05-07 11:31 29.62313 -74.64205 37089 ft 528 kts 56°
2026-05-07 11:32 29.67489 -74.53031 37084 ft 528 kts 56°
2026-05-07 11:33 29.70937 -74.45572 37087 ft 528 kts 57°
2026-05-07 11:33 29.74383 -74.38104 37086 ft 528 kts 57°
2026-05-07 11:34 29.77804 -74.30672 37083 ft 527 kts 57°
2026-05-07 11:34 29.81225 -74.23227 37084 ft 526 kts 57°
2026-05-07 11:35 29.84645 -74.15774 37089 ft 526 kts 57°
2026-05-07 11:35 29.88060 -74.08317 37092 ft 526 kts 57°
2026-05-07 11:36 29.91450 -74.00899 37088 ft 526 kts 57°
2026-05-07 11:36 29.94849 -73.93448 37086 ft 524 kts 57°
2026-05-07 11:37 29.98242 -73.85992 37093 ft 524 kts 57°
2026-05-07 11:37 30.01633 -73.78532 37093 ft 525 kts 57°
2026-05-07 11:38 30.05057 -73.71082 37098 ft 525 kts 57°
2026-05-07 11:38 30.08441 -73.63610 37100 ft 525 kts 57°
2026-05-07 11:39 30.11795 -73.56117 37095 ft 524 kts 57°
2026-05-07 11:39 30.15135 -73.48675 37101 ft 524 kts 57°
2026-05-07 11:40 30.18493 -73.41207 37113 ft 524 kts 57°
2026-05-07 11:40 30.21859 -73.33711 37103 ft 526 kts 57°
2026-05-07 11:41 30.25227 -73.26195 37102 ft 525 kts 57°
2026-05-07 11:41 30.28580 -73.18701 37103 ft 524 kts 57°
2026-05-07 11:42 30.31363 -73.12472 37105 ft 524 kts 57°
2026-05-07 11:42 30.34710 -73.04979 37109 ft 524 kts 57°
2026-05-07 11:43 30.38048 -72.97480 37106 ft 524 kts 57°
2026-05-07 11:43 30.41384 -72.89953 37112 ft 525 kts 57°
2026-05-07 11:44 30.44716 -72.82427 37107 ft 525 kts 57°
2026-05-07 11:44 30.48050 -72.74889 37112 ft 525 kts 57°
2026-05-07 11:45 30.51376 -72.67354 37115 ft 525 kts 57°
2026-05-07 11:45 30.54701 -72.59808 37116 ft 525 kts 57°
2026-05-07 11:46 30.58543 -72.52787 37116 ft 516 kts 48°
2026-05-07 11:46 30.62732 -72.46013 37115 ft 516 kts 47°
2026-05-07 11:47 30.66971 -72.39279 37114 ft 516 kts 47°
2026-05-07 11:47 30.71204 -72.32534 37118 ft 516 kts 47°
2026-05-07 11:48 30.75423 -72.25776 37114 ft 517 kts 47°
2026-05-07 11:48 30.79634 -72.19009 37121 ft 516 kts 47°
2026-05-07 11:49 30.83837 -72.12243 37120 ft 516 kts 47°
2026-05-07 11:49 30.88013 -72.05511 37119 ft 516 kts 47°
2026-05-07 11:50 30.92214 -71.98727 37117 ft 516 kts 47°
2026-05-07 11:50 30.96410 -71.91939 37121 ft 516 kts 47°
2026-05-07 11:51 31.00603 -71.85144 37124 ft 516 kts 47°
2026-05-07 11:51 31.04796 -71.78337 37135 ft 516 kts 47°
2026-05-07 11:52 31.08989 -71.71521 37126 ft 517 kts 47°
2026-05-07 11:52 31.13183 -71.64690 37128 ft 517 kts 47°
2026-05-07 11:53 31.17347 -71.57894 37126 ft 517 kts 47°
2026-05-07 11:53 31.21532 -71.51052 37129 ft 517 kts 47°
2026-05-07 11:54 31.25710 -71.44210 37134 ft 517 kts 47°
2026-05-07 11:54 31.29894 -71.37348 37125 ft 518 kts 47°
2026-05-07 11:55 31.34056 -71.30511 37130 ft 518 kts 47°
2026-05-07 11:55 31.38230 -71.23639 37125 ft 518 kts 47°
2026-05-07 11:56 31.42404 -71.16756 37125 ft 518 kts 47°
2026-05-07 11:56 31.46572 -71.09870 37154 ft 518 kts 47°
2026-05-07 11:57 31.50743 -71.02969 37130 ft 519 kts 47°
2026-05-07 11:57 31.54918 -70.96048 37129 ft 519 kts 47°
2026-05-07 11:58 31.59059 -70.89170 37129 ft 519 kts 47°
2026-05-07 11:58 31.63216 -70.82249 37132 ft 518 kts 47°
2026-05-07 11:59 31.67361 -70.75340 37145 ft 517 kts 47°
2026-05-07 11:59 31.71508 -70.68418 37135 ft 518 kts 47°
2026-05-07 12:00 31.75626 -70.61533 37136 ft 518 kts 47°
2026-05-07 12:00 31.79766 -70.54597 37138 ft 518 kts 47°
2026-05-07 12:01 31.83894 -70.47661 37136 ft 515 kts 46°
2026-05-07 12:01 31.88002 -70.40750 37138 ft 514 kts 46°
2026-05-07 12:02 31.92107 -70.33837 37134 ft 514 kts 46°
2026-05-07 12:02 31.96172 -70.26977 37138 ft 514 kts 47°
2026-05-07 12:03 32.00263 -70.20061 37142 ft 514 kts 47°
2026-05-07 12:03 32.04337 -70.13155 37137 ft 510 kts 46°
2026-05-07 12:04 32.08383 -70.06285 37152 ft 509 kts 46°
2026-05-07 12:04 32.12424 -69.99419 37139 ft 509 kts 46°
2026-05-07 12:05 32.16437 -69.92588 37142 ft 509 kts 46°
2026-05-07 12:05 32.20465 -69.85716 37140 ft 509 kts 46°
2026-05-07 12:06 32.24473 -69.78858 37140 ft 506 kts 46°
2026-05-07 12:06 32.28468 -69.72017 37156 ft 505 kts 46°
2026-05-07 12:07 32.32454 -69.65183 37140 ft 505 kts 46°
2026-05-07 12:07 32.36439 -69.58334 37140 ft 505 kts 46°
2026-05-07 12:08 32.40421 -69.51480 37143 ft 505 kts 46°
2026-05-07 12:08 32.44352 -69.44695 37140 ft 502 kts 46°
2026-05-07 12:09 32.48300 -69.37873 37154 ft 502 kts 46°
2026-05-07 12:09 32.52252 -69.31037 37144 ft 502 kts 46°
2026-05-07 12:10 32.56200 -69.24193 37143 ft 503 kts 46°
2026-05-07 12:10 32.60129 -69.17367 37144 ft 503 kts 46°
2026-05-07 12:11 32.64065 -69.10515 37146 ft 502 kts 46°
2026-05-07 12:11 32.67992 -69.03668 37146 ft 502 kts 46°
2026-05-07 12:12 32.71924 -68.96803 37144 ft 503 kts 46°
2026-05-07 12:12 32.75861 -68.89913 37146 ft 503 kts 46°
2026-05-07 12:13 32.79765 -68.83066 37142 ft 503 kts 46°
2026-05-07 12:13 32.83677 -68.76191 37147 ft 501 kts 46°
2026-05-07 12:14 32.87580 -68.69323 37159 ft 501 kts 46°
2026-05-07 12:14 32.91487 -68.62440 37146 ft 502 kts 46°
2026-05-07 12:15 32.95396 -68.55537 37148 ft 502 kts 46°
2026-05-07 12:15 32.99296 -68.48635 37148 ft 502 kts 46°
2026-05-07 12:16 33.03185 -68.41737 37146 ft 501 kts 46°
2026-05-07 12:16 33.07044 -68.34884 37148 ft 501 kts 46°
2026-05-07 12:17 33.10934 -68.27964 37144 ft 502 kts 46°
2026-05-07 12:17 33.14817 -68.21043 37146 ft 502 kts 46°
2026-05-07 12:18 33.18701 -68.14103 37144 ft 501 kts 46°
2026-05-07 12:18 33.22601 -68.07226 37146 ft 498 kts 44°
2026-05-07 12:19 33.26735 -68.00615 37140 ft 496 kts 42°
2026-05-07 12:19 33.30924 -67.94046 37141 ft 497 kts 43°
2026-05-07 12:20 33.35048 -67.87476 37141 ft 497 kts 43°
2026-05-07 12:20 33.39178 -67.80819 37142 ft 498 kts 43°
2026-05-07 12:21 33.43302 -67.74142 37161 ft 498 kts 43°
2026-05-07 12:21 33.47420 -67.67466 37137 ft 498 kts 43°
2026-05-07 12:22 33.51511 -67.60826 37133 ft 498 kts 43°
2026-05-07 12:22 33.55629 -67.54130 37144 ft 498 kts 43°
2026-05-07 12:23 33.59735 -67.47438 37138 ft 496 kts 43°
2026-05-07 12:23 33.63824 -67.40765 37145 ft 496 kts 43°
2026-05-07 12:24 33.67894 -67.34116 37135 ft 497 kts 43°
2026-05-07 12:24 33.71985 -67.27417 37137 ft 498 kts 44°
2026-05-07 12:25 33.76075 -67.20705 37137 ft 497 kts 44°
2026-05-07 12:25 33.80150 -67.14002 37135 ft 496 kts 44°
2026-05-07 12:26 33.84215 -67.07307 37132 ft 495 kts 44°
2026-05-07 12:26 33.88271 -67.00616 37132 ft 495 kts 44°
2026-05-07 12:27 33.92328 -66.93911 37131 ft 495 kts 44°
2026-05-07 12:27 33.96380 -66.87202 37139 ft 495 kts 44°